CAPE
0 0 0 0 0 0 5 1 0 0 0 0 0 66 18 2 0 0 204 0 0 0 0 0 63 346 561 726 865 613 442 396 475 471 383 333 393 566 760 809 682 561 670 723 925 968 1087 1226 1136 1019 991 1023 1114 1160 1035 1152 841 655 756 762 558 365 370 410 403 467 631 666 682 755 856 992 1138 1244 1264 1267 1216 1127 1163 1262 1257 1312 1317 1326 1419 1469 1494
0 0 0 0 0 0 0 0 0 0 0 0 0 18 0 0 12 32 34 0 0 0 0 0 42 103 0 230 368 272 205 204 320 339 412 392 362 496 689 722 552 628 690 887 998 1105 1212 1195 1147 1046 1061 1133 1141 1101 977 781 919 813 851 675 466 362 310 316 432 628 714 743 794 932 1035 1147 1183 1166 1042 1089 1025 1065 1192 1226 1311 1410 1517 1506 1412 1362 1387
0 0 0 0 0 0 0 0 0 0 0 0 0 0 0 0 0 0 0 0 5 11 0 0 32 54 0 1 12 48 149 234 270 337 416 474 395 465 665 636 572 594 724 918 1092 1122 1226 1236 1272 1184 1211 1218 1318 999 852 829 966 902 681 524 432 340 353 396 548 699 738 926 979 1031 1209 1216 1142 1095 986 932 985 1220 1372 1479 1571 1558 1586 1528 1380 1328 1325
0 0 0 0 0 0 0 0 0 0 0 0 0 0 25 0 6 112 6 0 0 39 26 0 0 0 14 33 182 170 152 152 297 322 431 521 497 440 548 556 620 622 691 877 1025 1139 1297 1457 1356 1266 1246 1337 1396 1176 1053 986 808 698 513 310 236 311 302 440 629 702 856 992 1002 1096 1262 1232 1078 918 764 856 1080 1325 1416 1586 1681 1688 1724 1593 1487 1430 1361
30 0 0 0 0 0 0 0 0 0 0 0 0 0 0 1 4 0 0 0 1 49 257 45 298 120 118 141 135 177 118 188 264 371 474 567 595 532 566 700 658 642 680 856 1070 1217 1502 1412 1337 1256 1382 1368 1318 1359 1331 1245 974 673 457 300 397 385 400 514 604 828 921 894 912 1031 1210 1186 930 759 785 1001 1215 1384 1429 1462 1622 1755 1598 1539 1524 1521 1534
15 0 0 0 0 0 0 44 12 8 0 0 0 0 0 0 0 0 0 4 27 54 13 8 86 328 368 246 160 74 201 232 326 374 517 594 619 584 584 659 597 678 882 930 1056 1286 1521 1420 1158 1298 1328 1412 1402 1477 1325 1102 755 714 613 606 516 365 448 598 780 898 884 884 870 1072 1154 1020 778 790 1028 1160 1260 1293 1426 1641 1734 1702 1702 1698 1711 1759 1736
3 0 4 0 0 4 114 0 0 0 0 4 3 79 68 44 9 0 0 0 13 42 19 9 104 52 24 4 2 8 0 177 397 462 478 586 617 589 642 712 663 864 1024 1106 1170 1194 1182 1099 1027 1103 1222 1180 1251 1134 937 732 666 652 616 608 560 498 486 623 838 814 813 899 937 1068 1061 917 849 972 1185 1282 1348 1376 1442 1556 1561 1526 1598 1496 1500 1527 1681
4 12 12 0 0 0 0 4 0 0 0 0 0 0 0 2 0 13 0 0 42 102 7 3 0 3 12 4 38 66 45 58 248 385 452 516 558 690 683 738 771 1074 1063 1092 1067 1172 1142 1002 922 843 1038 1002 887 982 977 782 761 614 610 577 530 602 604 652 762 850 833 852 1070 1066 933 961 1102 1158 1297 1440 1429 1465 1434 1391 1538 1644 1648 1640 1592 1545 1566
36 56 16 12 88 1 11 0 8 0 47 13 4 0 2 336 130 0 3 80 202 53 20 10 6 2 6 118 373 29 14 34 102 291 410 358 494 632 757 798 1017 1215 1223 1243 1227 1351 1158 927 884 876 857 874 862 1021 924 742 754 664 525 544 600 694 718 804 926 999 994 918 1022 1082 1022 1065 1078 960 1088 1223 1310 1434 1350 1233 1358 1530 1571 1442 1610 1546 1520
8 25 11 3 0 0 24 378 441 3 5 20 243 0 0 244 178 2 45 102 483 374 55 24 56 82 280 329 499 328 4 15 60 115 278 214 408 647 659 751 882 1095 968 917 916 828 838 812 834 926 915 802 959 1101 1024 950 760 676 684 671 784 877 869 967 1123 1177 1085 960 970 1055 1158 1100 831 790 826 1182 1357 1378 1242 1035 965 1012 1138 1345 1598 1708 1469
0 0 1 7 4 30 228 200 114 0 0 0 0 0 0 327 535 41 0 112 396 318 251 238 125 274 144 130 214 464 65 28 20 72 51 44 66 261 390 426 574 683 832 810 690 708 749 805 854 920 930 792 915 1036 1120 952 804 825 920 1017 1033 1009 1020 1053 1108 1075 1003 1048 1012 1025 1246 1109 938 852 936 1047 1110 1256 1076 984 1043 1320 1368 1418 1445 1397 1063
8 21 0 0 0 0 78 67 16 0 0 0 0 0 0 236 192 78 26 234 500 349 364 246 398 482 158 107 388 181 108 95 111 259 328 232 183 252 379 408 626 955 892 742 708 727 782 917 1006 928 794 837 866 1063 1044 939 965 1010 1115 1236 1461 1249 1036 944 906 935 971 1050 1198 1266 1382 1359 1242 1104 1129 1059 933 736 924 840 774 795 1201 1277 1382 1132 986
0 0 0 0 0 0 0 0 0 0 0 0 0 0 0 272 404 184 239 542 718 537 383 281 474 789 956 700 246 5 86 102 150 208 354 418 374 376 172 208 360 457 670 731 1002 1124 1040 1161 967 724 677 837 1070 1292 1436 1372 1207 1174 1326 1484 1242 1029 980 892 884 992 1114 1214 1359 1504 1508 1258 1052 993 1156 971 887 1033 736 673 941 1206 1091 1030 1026 1253 1105
0 0 0 0 0 0 0 0 0 0 0 0 0 7 587 465 346 140 257 494 493 461 602 461 850 434 29 27 40 55 133 318 510 247 197 152 96 144 313 467 746 623 447 687 849 850 1108 851 656 661 794 976 1266 1454 1469 1386 1406 1362 1546 1232 1046 1024 1101 1151 1127 1151 1289 1420 1474 1449 1584 1272 1210 1249 1258 1072 841 1020 856 936 1072 1127 1204 1062 1001 1128 1221
0 0 0 0 0 0 0 0 0 0 0 0 493 538 54 15 569 245 130 351 414 403 625 420 576 261 2 27 174 166 303 441 526 424 235 280 320 234 292 423 637 685 717 668 713 798 659 436 505 590 701 1068 1334 1398 1349 1445 1542 1540 1284 1054 1026 1117 1176 1138 1229 1298 1475 1576 1577 1624 1483 1274 1234 1015 1109 1088 1272 1286 1214 1084 1074 986 950 990 838 710 800
0 0 0 0 25 0 0 0 0 2 0 95 0 11 48 209 54 312 456 399 434 399 760 247 221 308 380 266 484 532 474 488 598 644 677 705 629 564 359 238 510 734 993 1055 958 860 298 471 535 629 810 1134 1364 1363 1392 1590 1468 1140 876 849 991 1064 1201 1423 1510 1525 1498 1517 1740 1654 1297 1335 1078 1032 988 1035 1196 1364 1112 1036 876 803 803 880 864 606 539
0 0 0 87 25 0 0 0 0 70 71 0 1 1 14 482 223 178 423 629 344 362 655 428 471 277 478 696 630 1038 860 638 500 752 871 735 746 681 536 260 379 458 797 1214 1127 844 610 672 799 856 817 1087 1328 1330 1550 1561 1108 940 912 1038 1259 1287 1402 1493 1641 1468 1363 1408 1581 1247 927 1074 885 850 749 927 967 1306 1160 932 936 792 814 603 752 700 695
0 0 0 0 0 0 0 0 0 0 0 0 0 0 24 70 304 184 347 507 241 196 494 410 406 659 606 565 270 397 420 661 684 586 582 547 577 387 338 371 306 306 492 626 714 870 879 698 768 771 863 925 1200 1374 1497 1092 999 911 1032 1104 1132 1163 1265 1400 1381 1205 1084 1250 1449 994 786 848 861 1008 691 634 737 1054 1032 865 838 830 711 536 501 478 589
0 0 20 0 0 0 0 0 0 0 0 0 0 2 0 108 48 22 62 313 285 166 196 623 550 644 338 540 768 934 862 798 996 696 997 1028 579 640 724 595 350 399 536 555 690 735 783 663 459 422 680 682 920 1178 916 856 816 989 997 968 1024 1287 1462 1285 1224 1072 1058 1110 1026 548 604 722 683 672 766 740 907 942 873 714 613 537 398 381 351 262 378
0 3 23 0 0 0 0 0 0 0 1 0 2 45 167 99 18 86 85 113 130 124 189 567 716 517 372 605 847 1012 1180 1251 1112 1056 1364 1038 843 524 201 139 187 365 588 734 739 815 796 864 452 313 370 541 544 573 401 448 442 677 752 936 1128 1242 1086 950 969 1110 1198 1116 928 355 341 306 232 414 472 437 711 758 587 438 469 407 306 359 176 94 86
0 7 28 0 0 50 30 0 0 0 0 8 3 0 1 1 22 2 9 69 38 6 271 416 642 514 697 909 1006 222 670 755 726 983 1216 1001 784 464 315 199 237 466 726 721 872 879 795 423 182 174 179 160 181 376 466 443 681 890 1131 1232 1098 1065 814 816 688 1072 1205 1030 976 468 406 717 841 972 698 620 758 163 0 1 4 38 164 15 0 0 0
0 0 0 0 0 0 0 0 0 4 0 0 35 0 3 57 85 56 12 4 4 4 113 332 462 795 662 520 586 46 400 776 998 1159 1002 858 474 333 128 52 168 435 442 528 669 559 535 203 241 286 292 336 324 234 430 645 868 1057 1140 978 806 462 462 388 208 266 618 623 638 795 264 428 649 507 0 0 151 197 0 0 0 0 0 0 0 0 0
0 0 0 0 0 0 0 0 1 0 0 0 72 326 183 153 192 114 90 7 6 4 8 204 544 666 842 742 1119 619 168 911 1201 1042 768 551 346 215 196 124 239 273 409 340 383 283 233 182 228 324 383 364 536 410 742 707 684 1046 901 788 567 424 458 273 300 411 345 346 764 970 700 793 780 490 44 0 0 0 0 0 0 0 0 0 0 0 0
0 0 0 0 0 0 0 0 0 0 2 0 0 6 7 8 10 5 206 138 7 61 248 92 559 1063 1257 973 685 600 605 478 298 332 305 350 351 332 316 286 298 311 351 377 383 499 453 409 429 446 305 302 569 281 482 504 720 876 819 740 682 606 520 420 776 813 801 777 768 684 764 809 652 444 372 3 1 0 0 0 0 0 0 0 0 0 0
0 0 0 0 0 0 0 0 0 0 50 8 0 5 10 13 11 7 67 338 536 344 304 370 136 156 558 346 257 588 511 364 260 219 540 540 374 348 265 270 339 405 442 419 440 443 485 438 400 366 359 404 406 250 524 526 633 730 844 607 290 294 525 762 816 887 768 1058 1040 791 552 486 608 594 557 582 39 0 0 0 0 0 0 0 0 0 0
0 0 0 0 0 0 1 0 0 27 140 78 77 83 11 7 12 11 9 512 288 158 333 151 18 1 2 87 158 286 362 532 748 606 431 414 237 24 11 42 29 106 112 170 199 228 234 302 444 422 513 542 444 492 264 585 686 688 694 698 718 601 656 785 1025 1088 965 944 883 984 896 827 738 420 670 639 907 190 0 0 0 0 0 0 0 0 0
0 0 0 0 0 0 0 0 0 0 0 0 0 322 408 360 250 14 10 8 10 1 2 4 11 39 199 358 371 343 759 749 738 391 195 84 2 0 0 0 1 3 1 0 0 48 181 321 495 536 614 437 379 424 497 589 581 582 634 794 729 686 734 847 724 771 765 952 857 712 684 629 615 548 536 580 401 227 291 162 16 0 2 1 0 0 0
0 11 0 0 0 0 0 0 0 0 0 0 1 0 65 288 54 14 16 9 6 10 13 28 59 181 332 289 591 606 349 563 514 415 235 69 0 0 0 0 0 0 0 0 1 310 594 494 386 389 394 318 242 374 392 442 476 503 468 465 448 506 690 504 455 637 806 732 1050 972 597 550 615 360 230 94 40 6 2 0 0 0 1 0 2 0 0
0 0 0 0 0 0 0 0 0 0 0 4 8 2 2 34 108 8 6 6 7 5 4 14 207 354 388 395 426 456 494 471 407 323 232 108 51 0 0 0 0 5 0 82 164 404 418 408 384 354 351 123 91 124 150 177 320 425 434 375 553 569 597 516 730 677 580 563 496 616 424 258 200 128 38 28 1 2 0 0 0 0 0 1 0 1 0
0 0 0 0 0 0 0 0 0 0 0 0 0 7 3 5 7 9 271 110 34 163 274 403 324 274 292 364 329 198 300 262 246 137 117 44 58 103 24 30 0 12 96 157 193 254 326 286 266 262 238 32 30 78 30 96 182 358 403 467 611 590 584 575 647 304 289 280 117 41 186 214 85 42 48 17 10 2 2 1 1 0 0 0 0 1 1
0 0 0 0 0 0 0 0 0 0 0 0 0 1 3 5 5 352 323 350 281 400 458 456 564 588 402 354 363 271 206 191 211 207 88 13 0 0 22 53 42 228 154 50 4 6 56 182 186 190 38 3 0 0 16 49 99 100 138 172 249 74 2 29 154 340 296 119 32 31 30 36 37 27 9 1 1 2 1 2 2 1 1 2 1 1 1
0 0 0 0 0 0 0 0 0 0 0 0 0 0 42 175 16 345 407 298 310 450 586 586 583 579 636 478 424 412 331 256 212 139 64 19 2 0 36 111 87 19 1 12 30 34 34 92 33 36 0 0 0 0 34 16 67 138 184 212 220 180 30 35 112 124 220 95 83 6 3 5 6 8 1 2 3 2 2 2 1 2 1 2 1 1 1
0 0 0 0 0 0 0 0 0 0 0 2 15 2 81 146 211 330 490 466 362 496 524 620 591 478 302 309 405 359 274 186 114 69 50 20 2 1 3 2 4 6 3 2 1 0 0 1 0 0 0 0 0 0 0 28 50 62 146 164 163 91 40 10 23 13 3 2 4 6 6 14 21 3 2 2 3 3 2 2 2 2 4 2 1 1 0
0 0 0 0 0 0 0 0 0 16 36 8 8 32 35 76 184 387 548 508 395 327 406 412 399 420 402 443 452 320 287 318 242 88 36 16 0 1 0 0 0 0 0 0 0 0 0 2 0 14 6 0 4 15 44 16 31 64 93 30 9 1 1 35 26 40 4 1 7 8 4 7 12 8 3 4 3 4 4 4 3 2 4 2 1 1 2
0 0 0 0 0 0 0 0 0 0 0 0 6 22 58 121 276 438 375 310 380 304 283 370 428 434 518 421 378 384 410 343 128 44 15 1 0 0 0 0 0 0 0 0 0 0 0 6 15 3 1 0 1 2 12 24 28 39 6 2 0 7 21 13 1 2 10 3 11 10 4 5 3 3 3 3 4 4 4 5 4 3 2 3 1 4 3
0 0 0 0 0 0 0 0 0 0 0 13 51 54 57 99 236 288 328 350 201 98 156 265 290 271 358 462 380 304 230 116 64 31 2 0 0 0 0 0 0 0 0 0 0 0 0 6 5 3 1 4 2 3 1 0 6 14 38 25 44 9 2 4 2 4 8 3 2 2 2 3 4 3 4 4 4 4 4 5 5 4 4 4 4 1 2
0 0 0 0 0 0 0 0 0 0 34 121 90 41 67 167 319 425 228 47 126 102 21 20 21 233 194 146 58 38 32 102 61 17 4 0 0 0 0 0 1 0 0 0 0 3 6 4 2 0 1 4 2 11 2 5 22 37 43 3 6 5 0 10 8 13 19 9 0 1 2 1 1 2 3 2 4 4 4 4 6 4 2 2 0 2 5
2 0 0 0 0 0 0 0 0 32 28 22 70 139 246 341 397 221 160 96 19 23 47 22 23 33 90 32 27 16 81 56 9 0 1 1 1 1 1 1 0 0 0 0 2 4 4 1 0 0 2 2 8 0 0 0 3 0 0 0 0 0 0 0 0 0 0 0 0 0 0 0 0 0 0 1 2 5 4 4 4 4 2 0 0 1 3
22 0 0 0 2 0 0 1 0 6 7 82 164 310 506 426 200 132 6 31 33 50 15 6 14 187 44 41 26 55 26 6 2 2 1 1 1 1 2 0 0 0 1 1 0 0 0 0 0 0 1 0 0 1 0 0 1 4 3 2 1 0 0 0 0 0 0 0 0 0 0 0 0 0 0 2 3 5 5 4 2 1 0 0 0 0 0
37 10 0 0 13 25 36 30 13 32 1 95 342 395 95 90 154 68 8 27 11 6 33 39 31 43 55 37 19 2 2 2 2 1 0 1 0 0 1 0 0 1 1 0 0 0 0 0 0 0 0 0 0 0 0 0 2 2 0 0 0 0 0 0 0 0 0 0 0 0 0 0 0 0 0 2 2 1 0 0 0 0 0 0 0 0 0
106 56 20 18 2 0 0 0 0 0 0 1 30 92 104 134 158 59 134 14 22 25 54 60 54 31 24 16 8 1 3 4 1 0 0 0 0 0 0 0 0 0 0 0 0 0 0 0 0 0 0 0 0 0 0 0 0 0 0 0 0 0 0 0 0 0 0 0 0 0 0 0 0 0 0 0 0 0 0 0 0 0 0 0 0 0 0
179 190 84 36 18 1 0 0 5 6 3 5 129 114 111 42 146 18 19 10 10 26 17 16 12 19 11 4 2 2 1 0 0 0 0 0 0 0 0 0 0 0 0 0 0 0 0 0 0 0 0 0 0 0 0 0 0 0 0 0 0 0 0 0 0 0 0 0 0 0 0 0 0 0 0 0 0 0 0 0 0 0 0 0 0 0 0
350 292 204 174 167 144 110 146 136 54 88 34 5 16 7 18 30 34 18 10 40 36 14 2 15 2 2 2 1 1 0 0 0 0 0 0 0 0 0 0 0 0 0 0 0 0 0 0 0 0 0 0 0 0 0 0 0 0 0 0 0 0 0 0 0 0 0 0 0 0 0 0 0 0 0 0 0 0 0 0 0 0 0 0 0 0 0
356 391 381 362 240 172 132 95 109 216 204 58 7 2 7 29 20 2 0 7 25 41 30 1 1 2 1 1 0 1 0 0 0 0 0 0 0 0 0 0 0 0 0 0 0 0 0 0 0 0 0 0 0 0 0 0 0 0 0 0 0 0 0 0 0 0 0 0 0 0 0 0 0 0 0 0 0 0 0 0 0 0 0 0 0 0 0
404 457 368 16 38 125 90 102 9 11 8 12 0 1 1 0 10 25 48 80 44 5 0 0 2 2 1 1 1 0 0 0 0 0 1 0 1 1 0 0 0 0 0 0 0 0 0 0 0 0 0 0 0 0 0 0 0 0 0 0 0 0 0 0 0 0 0 0 0 0 0 0 0 0 0 0 0 0 0 0 0 0 0 0 0 1 0
325 423 481 370 8 3 2 0 1 0 1 1 0 0 0 0 0 1 39 58 46 4 1 2 2 1 1 0 1 0 0 0 0 0 0 0 0 0 0 0 0 0 0 0 0 0 0 0 0 0 0 0 0 0 0 0 0 0 0 0 1 3 2 0 0 0 0 0 0 0 0 0 0 0 0 0 0 0 0 0 0 0 0 0 0 0 0
65 4 171 221 81 8 6 8 2 2 1 13 22 0 0 0 19 43 38 14 2 1 2 2 2 2 1 0 0 0 0 0 0 0 0 0 0 0 0 0 0 0 0 0 0 0 0 0 0 0 0 0 0 0 0 0 0 0 0 0 0 0 1 2 1 0 0 0 0 0 0 0 0 0 0 0 0 0 2 1 0 0 0 1 2 2 0
54 32 42 40 26 29 36 35 61 53 159 222 66 0 0 1 1 1 1 1 1 1 1 1 2 1 1 0 0 2 4 2 0 0 0 0 0 0 0 0 0 0 0 0 0 0 0 0 0 0 0 0 0 0 0 0 0 0 0 0 0 0 0 0 0 0 0 0 0 0 0 0 0 0 0 0 0 0 0 0 0 0 1 1 0 0 0
4 39 17 52 41 42 59 134 192 224 127 32 7 0 0 0 0 0 0 0 0 4 2 1 0 0 0 0 0 2 1 4 44 9 0 0 0 0 0 0 1 0 0 0 0 0 0 0 0 0 0 0 0 0 0 0 0 0 0 0 0 0 0 0 0 0 0 0 0 0 0 0 0 0 0 0 0 0 0 0 0 0 0 0 0 0 0
25 60 87 110 171 328 404 320 180 263 74 17 13 0 0 1 4 3 0 2 6 30 24 10 7 2 0 0 0 2 0 0 0 2 1 0 0 0 0 0 2 0 0 0 0 0 0 0 0 0 0 0 0 0 0 0 0 0 0 0 0 0 0 0 0 0 0 0 0 0 0 0 0 0 0 0 0 0 0 0 0 0 0 0 0 0 0
158 274 383 408 356 379 297 434 451 292 145 65 22 12 12 26 29 18 8 6 17 23 18 18 12 3 0 11 23 26 22 13 0 0 0 0 0 0 0 1 4 4 4 5 4 0 0 0 0 0 0 0 0 0 0 0 0 0 0 0 0 0 0 0 0 0 0 0 0 0 0 0 0 0 0 0 0 0 0 0 0 0 0 0 0 0 0
5 16 20 20 35 40 46 26 26 107 108 78 57 48 44 38 37 28 18 18 25 39 27 32 26 30 26 22 26 24 2 6 2 0 0 0 1 2 4 12 14 11 14 10 3 0 0 0 0 0 0 0 0 0 0 0 0 0 0 0 0 0 0 0 0 0 0 0 0 0 0 0 0 0 0 0 0 0 0 0 0 0 0 0 0 0 0
Wind_Speed
nan nan nan nan nan nan nan nan nan nan nan nan nan nan nan nan nan nan 33 nan nan nan nan nan nan 24 24 22 24 25 26 30 32 34 34 33 34 35 35 35 36 37 39 39 39 39 38 39 39 39 40 40 41 41 41 41 42 42 44 44 44 43 43 43 44 45 46 47 48 47 46 46 46 46 45 44 41 37 33 32 33 31 30 29 29 30 32
nan nan nan nan nan nan nan nan nan nan nan nan nan nan nan nan nan nan nan nan nan nan nan nan nan 27 nan 23 26 28 29 31 33 33 33 34 35 37 37 37 37 37 39 40 39 39 37 38 38 39 40 41 42 43 43 43 43 44 46 46 45 44 44 44 45 46 47 47 47 46 45 45 44 44 43 43 40 36 32 31 31 32 30 29 29 29 30
nan nan nan nan nan nan nan nan nan nan nan nan nan nan nan nan nan nan nan nan nan nan nan nan nan nan nan nan nan nan 29 33 34 34 34 34 36 36 37 38 38 38 40 39 39 38 37 37 38 40 41 42 43 43 44 45 46 46 48 47 47 46 45 45 46 46 48 47 47 45 44 44 44 43 42 41 39 36 33 32 31 32 31 28 27 29 30
nan nan nan nan nan nan nan nan nan nan nan nan nan nan nan nan nan 42 nan nan nan nan nan nan nan nan nan nan 28 30 31 32 33 33 35 36 36 36 38 38 39 40 40 39 38 37 37 38 39 41 42 43 45 45 46 46 47 48 49 48 47 46 45 45 46 47 47 47 45 44 44 44 42 42 41 40 37 35 34 33 32 32 30 28 27 29 31
nan nan nan nan nan nan nan nan nan nan nan nan nan nan nan nan nan nan nan nan nan nan 29 nan 24 27 24 25 28 31 32 32 32 33 35 36 36 37 38 39 40 40 40 39 38 37 38 39 40 41 44 45 45 47 48 48 49 49 48 47 46 45 45 45 45 47 48 47 45 44 44 43 42 41 40 38 36 34 33 34 32 30 29 27 26 28 30
nan nan nan nan nan nan nan nan nan nan nan nan nan nan nan nan nan nan nan nan nan nan nan nan nan 24 26 28 29 nan 31 33 31 31 33 35 35 36 37 37 39 39 38 38 37 37 39 40 41 43 45 46 45 47 48 50 50 49 48 47 46 44 45 45 46 48 48 47 46 45 44 43 41 39 38 37 36 35 35 34 31 28 26 25 25 27 29
nan nan nan nan nan nan 40 nan nan nan nan nan nan nan nan nan nan nan nan nan nan nan nan nan 26 nan nan nan nan nan nan 31 32 33 33 35 36 36 36 36 37 38 38 38 38 38 38 40 42 45 45 46 46 47 49 50 50 49 47 46 45 45 45 46 48 49 49 48 47 46 44 43 40 39 37 36 36 36 35 33 29 27 25 24 24 25 26
nan nan nan nan nan nan nan nan nan nan nan nan nan nan nan nan nan nan nan nan nan 28 nan nan nan nan nan nan nan nan nan nan 32 34 33 34 35 35 35 37 38 38 38 38 39 39 41 43 44 45 46 47 48 48 50 49 49 48 47 46 46 46 47 48 48 49 49 48 47 46 44 42 39 37 36 36 35 36 34 31 28 26 25 25 23 23 24
nan nan nan nan nan nan nan nan nan nan nan nan nan nan nan 35 34 nan nan nan 28 nan nan nan nan nan nan 28 28 nan nan nan 31 31 33 35 35 35 36 37 38 38 38 38 39 41 43 43 45 46 47 49 49 49 50 48 48 48 48 47 47 48 49 49 49 49 48 47 45 44 43 40 37 35 35 35 35 36 32 29 26 24 24 23 22 22 23
nan nan nan nan nan nan nan 36 41 nan nan nan 43 nan nan 32 29 nan nan 26 27 28 nan nan nan nan 28 27 30 32 nan nan nan 31 32 35 35 35 37 36 36 37 37 38 40 41 41 43 45 47 49 50 50 50 48 48 48 48 48 47 48 49 49 49 49 48 47 46 45 43 42 39 35 34 35 36 35 34 31 27 24 22 21 21 21 21 22
nan nan nan nan nan nan 41 32 34 nan nan nan nan nan nan 27 26 nan nan 25 27 28 29 30 28 28 25 26 29 31 nan nan nan nan nan nan nan 34 34 35 36 36 38 40 40 41 42 42 46 50 51 51 50 50 48 47 47 48 48 47 48 49 48 48 47 46 45 45 44 42 39 37 36 35 35 34 33 32 29 26 23 22 21 21 21 21 22
nan nan nan nan nan nan nan nan nan nan nan nan nan nan nan 27 29 nan nan 27 28 30 30 31 28 26 25 28 29 31 32 nan 34 36 37 35 34 33 33 33 34 36 40 41 40 41 42 43 49 52 52 50 50 50 49 48 48 48 47 47 48 48 47 45 45 44 44 43 43 41 38 37 37 36 35 34 32 29 27 25 23 22 22 22 21 21 22
nan nan nan nan nan nan nan nan nan nan nan nan nan nan nan 34 30 31 30 27 30 33 33 31 29 26 27 29 31 nan nan 35 34 34 34 33 34 35 35 34 36 37 38 40 40 42 43 46 50 52 52 51 50 50 49 48 47 46 46 48 48 46 46 44 43 42 42 43 42 40 38 36 37 36 35 33 31 28 25 24 22 21 21 22 21 21 21
nan nan nan nan nan nan nan nan nan nan nan nan nan nan 35 34 32 30 29 29 32 33 33 32 30 32 nan nan nan nan 34 34 35 35 36 36 nan 34 34 36 38 38 39 40 39 39 43 48 49 51 52 51 50 51 49 47 46 46 47 47 47 46 45 43 41 41 41 42 42 39 37 37 37 35 34 34 32 28 26 24 21 20 21 21 20 19 20
nan nan nan nan nan nan nan nan nan nan nan nan 36 35 nan nan 32 35 32 31 33 34 34 34 31 32 nan nan 33 32 33 34 36 36 37 37 36 36 36 35 36 39 40 40 40 41 45 48 50 51 52 51 51 51 48 46 47 47 47 47 46 45 44 43 42 42 42 42 41 40 38 36 35 33 33 32 31 28 25 23 21 20 20 20 19 18 18
nan nan nan nan nan nan nan nan nan nan nan nan nan nan nan 36 nan 36 37 34 36 35 38 39 34 32 33 33 33 33 33 33 35 36 35 35 34 35 34 35 38 39 38 39 40 45 47 49 50 52 52 51 50 49 46 46 48 48 48 47 47 45 44 43 44 43 42 41 40 39 36 34 33 32 31 30 29 27 24 22 21 20 20 21 20 18 18
nan nan nan nan nan nan nan nan nan nan nan nan nan nan nan 34 35 38 37 38 39 37 40 42 40 37 32 34 34 34 35 35 35 36 36 35 35 35 36 37 40 39 37 37 40 44 47 48 50 50 50 49 48 46 44 47 47 48 48 47 46 45 44 43 42 42 41 39 38 38 35 33 33 32 30 29 26 25 22 21 21 21 21 21 20 19 19
nan nan nan nan nan nan nan nan nan nan nan nan nan nan nan nan 36 38 38 40 42 41 41 44 39 38 38 36 36 35 36 37 37 37 37 37 36 36 36 37 39 38 39 39 41 42 46 49 49 49 47 46 46 43 46 47 47 48 47 45 43 42 42 41 40 40 38 36 37 34 31 31 31 30 29 27 25 23 22 22 21 21 21 22 21 20 19
nan nan nan nan nan nan nan nan nan nan nan nan nan nan nan 36 nan nan nan 40 43 44 44 43 44 42 41 40 39 37 37 38 39 38 38 38 38 37 37 40 41 41 41 41 42 44 44 49 49 48 47 45 44 44 46 47 47 47 45 43 41 42 41 40 39 38 35 34 36 36 32 31 31 30 29 27 25 23 23 22 21 21 22 23 22 21 20
nan nan nan nan nan nan nan nan nan nan nan nan nan nan 42 nan nan nan nan 44 45 45 43 42 43 43 42 42 41 39 39 39 39 38 38 38 39 39 40 41 41 41 43 43 43 44 44 48 49 47 47 46 45 44 44 45 45 45 42 41 41 41 41 40 38 36 33 33 35 35 34 32 31 29 27 25 24 24 24 24 22 22 23 24 24 nan nan
nan nan nan nan nan nan nan nan nan nan nan nan nan nan nan nan nan nan nan nan nan nan 43 44 44 45 41 42 42 42 42 41 40 39 39 40 39 40 41 41 42 42 42 41 41 43 45 48 48 48 47 46 45 45 44 44 44 42 42 42 42 41 41 40 37 35 34 34 35 35 35 33 31 29 25 26 26 26 nan nan nan nan 24 nan nan nan nan
nan nan nan nan nan nan nan nan nan nan nan nan nan nan nan nan nan nan nan nan nan nan 43 43 43 44 42 41 42 nan 43 42 42 42 43 42 42 42 42 nan 43 42 42 41 42 44 47 48 47 47 46 46 45 44 44 44 43 41 42 42 42 41 41 39 37 36 35 34 35 34 32 30 32 35 nan nan 24 26 nan nan nan nan nan nan nan nan nan
nan nan nan nan nan nan nan nan nan nan nan nan nan 42 44 43 44 45 nan nan nan nan nan 38 41 44 43 44 44 45 45 43 43 44 45 44 44 45 47 47 46 44 44 45 46 47 47 47 46 45 45 45 44 43 43 42 41 42 42 42 41 40 40 38 38 36 33 31 34 34 31 30 31 34 nan nan nan nan nan nan nan nan nan nan nan nan nan
nan nan nan nan nan nan nan nan nan nan nan nan nan nan nan nan nan nan 42 44 nan nan 42 nan 42 44 47 49 48 47 46 46 46 46 47 47 47 49 50 48 47 46 46 47 47 48 49 47 46 45 44 43 43 43 42 41 41 42 43 42 40 39 38 38 38 36 35 33 32 32 31 30 31 31 32 nan nan nan nan nan nan nan nan nan nan nan nan
nan nan nan nan nan nan nan nan nan nan nan nan nan nan nan nan nan nan nan 41 41 45 45 45 47 47 49 50 47 47 48 48 48 50 52 53 53 52 52 52 50 49 49 49 50 50 48 47 46 44 43 43 42 41 40 41 42 43 43 42 39 37 37 37 37 36 35 34 33 31 30 28 27 26 27 29 nan nan nan nan nan nan nan nan nan nan nan
nan nan nan nan nan nan nan nan nan nan 45 nan nan nan nan nan nan nan nan 40 41 42 45 48 nan nan nan nan 48 49 52 54 55 55 55 55 54 nan nan nan nan 50 50 51 51 49 47 46 45 43 43 42 41 39 39 40 41 41 40 38 37 36 36 37 36 36 35 35 34 33 31 30 30 29 26 25 24 27 nan nan nan nan nan nan nan nan nan
nan nan nan nan nan nan nan nan nan nan nan nan nan 38 42 45 46 nan nan nan nan nan nan nan nan nan 52 53 54 55 57 59 59 57 56 nan nan nan nan nan nan nan nan nan nan nan 47 46 44 43 41 39 38 37 38 39 38 38 37 37 36 37 36 34 34 34 33 35 36 36 33 31 28 27 27 28 27 27 28 28 nan nan nan nan nan nan nan
nan nan nan nan nan nan nan nan nan nan nan nan nan nan nan 45 nan nan nan nan nan nan nan nan nan 55 57 55 56 59 59 59 59 57 55 nan nan nan nan nan nan nan nan nan nan 47 45 44 43 41 40 38 37 36 37 36 35 35 35 35 35 35 37 36 35 34 34 37 39 38 35 32 31 32 32 nan nan nan nan nan nan nan nan nan nan nan nan
nan nan nan nan nan nan nan nan nan nan nan nan nan nan nan nan 42 nan nan nan nan nan nan nan 55 55 58 59 58 60 60 60 59 57 56 55 nan nan nan nan nan nan nan nan 47 45 44 43 41 40 39 37 nan 36 35 34 33 33 34 34 34 34 34 34 34 35 37 37 37 35 34 34 33 34 nan nan nan nan nan nan nan nan nan nan nan nan nan
nan nan nan nan nan nan nan nan nan nan nan nan nan nan nan nan nan nan 48 51 nan 50 53 56 56 57 58 61 61 61 61 61 61 59 57 nan nan 52 nan nan nan nan nan 47 44 42 42 41 40 38 38 nan nan nan nan nan 34 34 34 33 33 34 35 35 36 36 36 35 35 nan 33 33 nan nan nan nan nan nan nan nan nan nan nan nan nan nan nan
nan nan nan nan nan nan nan nan nan nan nan nan nan nan nan nan nan 47 49 51 50 51 55 55 57 60 61 62 63 63 64 64 62 60 nan nan nan nan nan nan nan 48 47 nan nan nan nan 39 38 37 nan nan nan nan nan nan nan nan 34 34 35 nan nan nan 35 35 34 33 nan nan nan nan nan nan nan nan nan nan nan nan nan nan nan nan nan nan nan
nan nan nan nan nan nan nan nan nan nan nan nan nan nan nan 43 nan 43 48 50 51 55 58 57 59 61 63 63 64 65 64 64 63 61 nan nan nan nan nan 51 nan nan nan nan nan nan nan nan nan nan nan nan nan nan nan nan nan 34 35 37 39 40 nan nan 38 37 35 nan nan nan nan nan nan nan nan nan nan nan nan nan nan nan nan nan nan nan nan
nan nan nan nan nan nan nan nan nan nan nan nan nan nan nan 38 39 41 47 52 56 57 58 59 61 63 63 63 63 63 63 62 61 nan nan nan nan nan nan nan nan nan nan nan nan nan nan nan nan nan nan nan nan nan nan nan nan nan 35 38 39 nan nan nan nan nan nan nan nan nan nan nan nan nan nan nan nan nan nan nan nan nan nan nan nan nan nan
nan nan nan nan nan nan nan nan nan nan nan nan nan nan nan nan 38 42 49 52 55 58 59 60 61 60 60 61 60 58 56 55 54 nan nan nan nan nan nan nan nan nan nan nan nan nan nan nan nan nan nan nan nan nan nan nan nan nan nan nan nan nan nan nan nan nan nan nan nan nan nan nan nan nan nan nan nan nan nan nan nan nan nan nan nan nan nan
nan nan nan nan nan nan nan nan nan nan nan nan nan nan nan 40 43 47 51 53 55 56 59 60 58 58 59 60 57 54 52 53 53 nan nan nan nan nan nan nan nan nan nan nan nan nan nan nan nan nan nan nan nan nan nan nan nan nan nan nan nan nan nan nan nan nan nan nan nan nan nan nan nan nan nan nan nan nan nan nan nan nan nan nan nan nan nan
nan nan nan nan nan nan nan nan nan nan nan nan nan nan nan nan 48 51 52 54 55 nan 58 58 56 56 56 55 53 51 52 53 nan nan nan nan nan nan nan nan nan nan nan nan nan nan nan nan nan nan nan nan nan nan nan nan nan nan nan nan nan nan nan nan nan nan nan nan nan nan nan nan nan nan nan nan nan nan nan nan nan nan nan nan nan nan nan
nan nan nan nan nan nan nan nan nan nan nan 42 nan nan nan 49 50 51 53 nan 53 55 nan nan nan 54 51 49 nan nan nan 48 nan nan nan nan nan nan nan nan nan nan nan nan nan nan nan nan nan nan nan nan nan nan nan nan nan nan nan nan nan nan nan nan nan nan nan nan nan nan nan nan nan nan nan nan nan nan nan nan nan nan nan nan nan nan nan
nan nan nan nan nan nan nan nan nan nan nan nan nan 48 49 49 50 53 52 nan nan nan nan nan nan nan nan nan nan nan nan nan nan nan nan nan nan nan nan nan nan nan nan nan nan nan nan nan nan nan nan nan nan nan nan nan nan nan nan nan nan nan nan nan nan nan nan nan nan nan nan nan nan nan nan nan nan nan nan nan nan nan nan nan nan nan nan
nan nan nan nan nan nan nan nan nan nan nan nan 46 47 47 50 52 51 nan nan nan nan nan nan nan 45 nan nan nan nan nan nan nan nan nan nan nan nan nan nan nan nan nan nan nan nan nan nan nan nan nan nan nan nan nan nan nan nan nan nan nan nan nan nan nan nan nan nan nan nan nan nan nan nan nan nan nan nan nan nan nan nan nan nan nan nan nan
nan nan nan nan nan nan nan nan nan nan nan nan 43 45 nan nan 50 nan nan nan nan nan nan nan nan nan nan nan nan nan nan nan nan nan nan nan nan nan nan nan nan nan nan nan nan nan nan nan nan nan nan nan nan nan nan nan nan nan nan nan nan nan nan nan nan nan nan nan nan nan nan nan nan nan nan nan nan nan nan nan nan nan nan nan nan nan nan
36 nan nan nan nan nan nan nan nan nan nan nan nan nan 36 34 36 nan 31 nan nan nan nan nan nan nan nan nan nan nan nan nan nan nan nan nan nan nan nan nan nan nan nan nan nan nan nan nan nan nan nan nan nan nan nan nan nan nan nan nan nan nan nan nan nan nan nan nan nan nan nan nan nan nan nan nan nan nan nan nan nan nan nan nan nan nan nan
37 36 nan nan nan nan nan nan nan nan nan nan 43 34 25 nan 23 nan nan nan nan nan nan nan nan nan nan nan nan nan nan nan nan nan nan nan nan nan nan nan nan nan nan nan nan nan nan nan nan nan nan nan nan nan nan nan nan nan nan nan nan nan nan nan nan nan nan nan nan nan nan nan nan nan nan nan nan nan nan nan nan nan nan nan nan nan nan
38 40 40 39 38 37 37 36 36 nan nan nan nan nan nan nan nan nan nan nan nan nan nan nan nan nan nan nan nan nan nan nan nan nan nan nan nan nan nan nan nan nan nan nan nan nan nan nan nan nan nan nan nan nan nan nan nan nan nan nan nan nan nan nan nan nan nan nan nan nan nan nan nan nan nan nan nan nan nan nan nan nan nan nan nan nan nan
36 36 35 34 33 31 31 nan 28 28 28 nan nan nan nan nan nan nan nan nan nan nan nan nan nan nan nan nan nan nan nan nan nan nan nan nan nan nan nan nan nan nan nan nan nan nan nan nan nan nan nan nan nan nan nan nan nan nan nan nan nan nan nan nan nan nan nan nan nan nan nan nan nan nan nan nan nan nan nan nan nan nan nan nan nan nan nan
29 27 28 nan nan 29 nan 23 nan nan nan nan nan nan nan nan nan nan nan nan nan nan nan nan nan nan nan nan nan nan nan nan nan nan nan nan nan nan nan nan nan nan nan nan nan nan nan nan nan nan nan nan nan nan nan nan nan nan nan nan nan nan nan nan nan nan nan nan nan nan nan nan nan nan nan nan nan nan nan nan nan nan nan nan nan nan nan
22 22 22 23 nan nan nan nan nan nan nan nan nan nan nan nan nan nan nan nan nan nan nan nan nan nan nan nan nan nan nan nan nan nan nan nan nan nan nan nan nan nan nan nan nan nan nan nan nan nan nan nan nan nan nan nan nan nan nan nan nan nan nan nan nan nan nan nan nan nan nan nan nan nan nan nan nan nan nan nan nan nan nan nan nan nan nan
nan nan 22 22 nan nan nan nan nan nan nan nan nan nan nan nan nan nan nan nan nan nan nan nan nan nan nan nan nan nan nan nan nan nan nan nan nan nan nan nan nan nan nan nan nan nan nan nan nan nan nan nan nan nan nan nan nan nan nan nan nan nan nan nan nan nan nan nan nan nan nan nan nan nan nan nan nan nan nan nan nan nan nan nan nan nan nan
nan nan nan nan nan nan nan nan nan nan 19 21 nan nan nan nan nan nan nan nan nan nan nan nan nan nan nan nan nan nan nan nan nan nan nan nan nan nan nan nan nan nan nan nan nan nan nan nan nan nan nan nan nan nan nan nan nan nan nan nan nan nan nan nan nan nan nan nan nan nan nan nan nan nan nan nan nan nan nan nan nan nan nan nan nan nan nan
nan nan nan nan nan nan nan 14 16 18 20 nan nan nan nan nan nan nan nan nan nan nan nan nan nan nan nan nan nan nan nan nan nan nan nan nan nan nan nan nan nan nan nan nan nan nan nan nan nan nan nan nan nan nan nan nan nan nan nan nan nan nan nan nan nan nan nan nan nan nan nan nan nan nan nan nan nan nan nan nan nan nan nan nan nan nan nan
nan nan nan 11 11 12 14 15 16 17 nan nan nan nan nan nan nan nan nan nan nan nan nan nan nan nan nan nan nan nan nan nan nan nan nan nan nan nan nan nan nan nan nan nan nan nan nan nan nan nan nan nan nan nan nan nan nan nan nan nan nan nan nan nan nan nan nan nan nan nan nan nan nan nan nan nan nan nan nan nan nan nan nan nan nan nan nan
8 11 12 12 12 13 13 13 14 15 16 nan nan nan nan nan nan nan nan nan nan nan nan nan nan nan nan nan nan nan nan nan nan nan nan nan nan nan nan nan nan nan nan nan nan nan nan nan nan nan nan nan nan nan nan nan nan nan nan nan nan nan nan nan nan nan nan nan nan nan nan nan nan nan nan nan nan nan nan nan nan nan nan nan nan nan nan
nan nan nan nan nan nan nan nan nan 13 14 nan nan nan nan nan nan nan nan nan nan nan nan nan nan nan nan nan nan nan nan nan nan nan nan nan nan nan nan nan nan nan nan nan nan nan nan nan nan nan nan nan nan nan nan nan nan nan nan nan nan nan nan nan nan nan nan nan nan nan nan nan nan nan nan nan nan nan nan nan nan nan nan nan nan nan nan
Wind_Direction
nan nan nan nan nan nan nan nan nan nan nan nan nan nan nan nan nan nan 298 nan nan nan nan nan nan 296 299 303 305 306 303 298 296 295 298 302 304 302 302 300 299 301 303 305 307 307 309 307 307 308 307 308 310 312 315 315 315 317 317 318 320 321 321 321 323 323 322 322 322 323 325 325 325 324 323 325 327 326 321 314 310 310 309 307 308 309 310
nan nan nan nan nan nan nan nan nan nan nan nan nan nan nan nan nan nan nan nan nan nan nan nan nan 285 nan 290 285 291 298 302 300 301 302 304 302 302 302 301 302 302 303 303 305 306 306 307 306 306 306 309 312 315 317 317 317 317 315 318 319 320 321 322 322 322 320 321 321 321 324 325 323 322 322 323 325 324 319 311 308 309 310 310 311 311 310
nan nan nan nan nan nan nan nan nan nan nan nan nan nan nan nan nan nan nan nan nan nan nan nan nan nan nan nan nan nan 298 299 302 302 302 301 300 300 300 300 301 300 300 302 303 304 306 306 306 306 307 311 313 317 318 319 318 317 315 317 318 319 321 321 320 319 319 319 319 321 324 324 322 320 320 321 323 322 316 310 308 308 310 311 312 312 311
nan nan nan nan nan nan nan nan nan nan nan nan nan nan nan nan nan 298 nan nan nan nan nan nan nan nan nan nan 297 297 297 299 300 303 302 300 300 301 301 300 298 298 301 302 303 306 306 305 305 306 309 312 313 317 317 317 317 315 314 315 317 318 319 318 318 318 318 318 320 323 324 324 321 319 319 320 321 319 313 309 307 308 310 310 310 310 310
nan nan nan nan nan nan nan nan nan nan nan nan nan nan nan nan nan nan nan nan nan nan 286 nan 288 290 289 292 294 295 295 297 301 302 302 301 300 300 299 299 300 300 302 303 304 305 303 303 306 310 310 311 315 316 316 315 313 313 314 315 315 317 317 317 317 317 317 319 322 324 324 322 319 317 318 319 319 316 312 308 308 309 308 307 306 307 309
nan nan nan nan nan nan nan nan nan nan nan nan nan nan nan nan nan nan nan nan nan nan nan nan nan 284 287 284 282 nan 291 294 296 296 296 297 297 297 298 299 300 299 296 296 300 304 304 306 308 307 309 312 313 313 313 311 312 313 313 314 315 317 317 317 318 318 318 321 324 325 323 320 318 317 317 318 317 315 312 311 310 309 306 303 302 304 305
nan nan nan nan nan nan 266 nan nan nan nan nan nan nan nan nan nan nan nan nan nan nan nan nan 291 nan nan nan nan nan nan 294 292 295 294 294 295 298 298 296 295 295 297 297 298 299 302 305 305 305 307 310 310 310 311 311 311 312 313 314 315 317 318 318 318 319 322 324 325 323 321 319 317 317 317 317 316 313 310 310 309 307 303 299 300 302 303
nan nan nan nan nan nan nan nan nan nan nan nan nan nan nan nan nan nan nan nan nan 292 nan nan nan nan nan nan nan nan nan nan 292 291 293 296 296 297 296 297 296 295 296 300 303 304 300 300 303 305 308 309 312 313 310 311 312 312 313 314 316 318 319 320 321 323 324 325 323 321 320 318 317 317 316 316 315 311 309 309 310 309 305 304 303 303 302
nan nan nan nan nan nan nan nan nan nan nan nan nan nan nan 289 294 nan nan nan 294 nan nan nan nan nan nan 282 284 nan nan nan 292 294 294 297 299 298 295 296 297 297 298 298 298 294 295 300 303 307 309 310 312 312 311 312 312 313 313 316 319 320 321 322 323 324 324 323 321 321 319 317 316 316 315 315 313 311 309 308 309 307 304 302 302 304 305
nan nan nan nan nan nan nan 275 271 nan nan nan 278 nan nan 287 294 nan nan 297 293 292 nan nan nan nan 283 283 283 286 nan nan nan 290 286 286 286 286 289 288 287 289 290 290 290 294 299 303 306 307 309 311 311 311 312 313 314 315 316 319 320 320 321 323 323 323 323 321 321 321 319 317 316 314 313 313 314 312 310 308 309 306 302 302 303 304 307
nan nan nan nan nan nan 268 275 270 nan nan nan nan nan nan 287 289 nan nan 300 296 299 296 292 291 289 289 286 281 282 nan nan nan nan nan nan nan 291 293 296 296 294 292 293 293 295 300 306 309 309 310 311 312 313 313 315 315 315 317 319 319 320 321 322 322 322 321 321 322 321 319 316 313 312 311 311 312 313 311 309 309 306 303 302 301 302 304
nan nan nan nan nan nan nan nan nan nan nan nan nan nan nan 281 287 nan nan 301 300 297 294 294 294 294 294 289 281 282 291 nan 291 292 291 290 290 292 293 293 292 289 287 289 295 301 306 312 308 308 308 310 314 313 315 315 315 316 318 319 317 317 319 320 321 321 321 322 322 321 319 315 312 311 311 311 311 311 309 306 303 301 302 302 301 299 300
nan nan nan nan nan nan nan nan nan nan nan nan nan nan nan 283 285 292 297 298 296 296 298 299 295 291 280 280 281 nan nan 290 290 289 290 290 289 292 296 297 294 292 294 297 302 307 307 304 304 306 308 312 314 314 314 314 316 316 317 314 315 318 319 320 322 323 322 321 321 320 317 313 310 311 310 309 310 311 306 301 301 302 299 298 299 301 301
nan nan nan nan nan nan nan nan nan nan nan nan nan nan 275 280 288 290 292 291 292 298 300 297 288 288 nan nan nan nan 293 293 290 291 289 288 nan 290 291 291 294 295 297 300 303 305 304 302 305 307 310 313 313 312 312 315 316 314 314 314 316 318 319 320 321 321 320 318 317 315 314 311 311 311 309 307 308 308 304 301 300 298 297 297 299 303 305
nan nan nan nan nan nan nan nan nan nan nan nan 271 273 nan nan 283 291 292 293 295 298 295 293 289 288 nan nan 283 287 288 287 289 290 291 293 295 295 293 292 296 296 297 301 306 306 302 305 306 308 311 313 312 311 313 316 313 312 312 314 316 317 318 319 319 318 316 316 315 312 311 312 312 312 309 306 304 304 303 299 296 293 292 292 295 300 303
nan nan nan nan nan nan nan nan nan nan nan nan nan nan nan 283 nan 291 291 293 296 300 296 296 292 288 285 280 281 281 282 282 280 283 286 287 287 288 290 290 289 295 298 301 301 299 301 304 307 309 312 312 310 311 316 313 310 311 313 316 317 318 317 317 317 316 315 315 315 313 311 311 313 314 311 306 302 301 299 297 293 290 288 290 293 295 297
nan nan nan nan nan nan nan nan nan nan nan nan nan nan nan 279 286 287 289 293 294 297 294 293 291 287 284 281 282 281 281 283 283 283 284 285 284 282 281 282 283 290 297 299 298 299 301 305 306 308 310 311 310 314 314 310 311 315 317 317 317 316 316 316 316 315 314 315 315 313 314 315 317 317 314 306 302 301 298 293 292 290 288 289 292 295 298
nan nan nan nan nan nan nan nan nan nan nan nan nan nan nan nan 282 286 287 287 289 290 287 289 285 284 285 283 282 279 278 279 279 279 280 281 283 285 286 289 291 295 298 301 301 302 303 305 306 307 310 311 315 316 309 310 314 317 318 317 316 315 314 314 313 313 314 316 316 315 311 311 316 318 317 309 304 301 297 294 293 293 291 290 292 293 297
nan nan nan nan nan nan nan nan nan nan nan nan nan nan nan 280 nan nan nan 280 284 286 286 287 287 284 285 285 283 281 281 282 283 285 286 288 290 291 292 292 293 297 301 302 303 303 304 305 307 309 311 313 313 310 311 313 316 316 316 315 314 313 312 311 311 313 316 317 313 308 312 310 310 314 316 310 304 302 299 295 294 293 291 290 291 291 294
nan nan nan nan nan nan nan nan nan nan nan nan nan nan 277 nan nan nan nan 277 278 280 283 284 284 285 287 287 285 285 284 284 286 288 290 291 292 293 293 294 297 300 302 303 303 304 303 303 305 308 310 313 313 314 315 316 315 313 313 314 313 312 310 310 310 312 313 314 311 310 312 311 310 311 311 308 302 298 295 292 293 293 290 288 287 nan nan
nan nan nan nan nan nan nan nan nan nan nan nan nan nan nan nan nan nan nan nan nan nan 281 282 284 285 285 283 285 288 287 289 291 292 291 290 289 288 291 294 299 301 300 300 300 301 301 301 305 307 310 311 312 313 314 313 312 313 312 311 311 309 308 309 310 312 311 308 307 310 310 308 307 303 302 300 296 291 nan nan nan nan 290 nan nan nan nan
nan nan nan nan nan nan nan nan nan nan nan nan nan nan nan nan nan nan nan nan nan nan 281 284 284 284 282 282 285 nan 290 291 291 290 289 288 289 289 289 nan 294 296 296 296 298 301 301 301 304 306 308 309 309 310 310 310 310 310 308 308 308 309 308 307 306 308 309 308 304 305 309 310 307 298 nan nan 281 293 nan nan nan nan nan nan nan nan nan
nan nan nan nan nan nan nan nan nan nan nan nan nan 271 275 276 275 277 nan nan nan nan nan 276 280 282 284 288 288 289 291 290 288 285 285 288 289 289 290 292 295 296 296 296 298 300 301 303 305 307 307 307 307 307 306 306 306 306 306 306 307 308 307 306 306 308 306 304 302 303 306 306 306 304 nan nan nan nan nan nan nan nan nan nan nan nan nan
nan nan nan nan nan nan nan nan nan nan nan nan nan nan nan nan nan nan 274 278 nan nan 276 nan 273 279 284 286 289 291 288 285 287 288 289 290 290 289 290 292 294 295 296 296 298 299 301 303 305 306 306 306 305 304 303 303 303 304 305 305 305 305 304 307 309 309 307 303 300 301 301 303 305 307 304 nan nan nan nan nan nan nan nan nan nan nan nan
nan nan nan nan nan nan nan nan nan nan nan nan nan nan nan nan nan nan nan 273 274 280 281 280 279 279 284 284 285 285 285 286 287 288 289 290 289 289 291 293 294 295 296 296 298 300 302 304 306 306 307 305 303 303 303 304 305 305 305 305 306 306 307 308 307 307 304 302 299 297 296 298 300 301 305 304 nan nan nan nan nan nan nan nan nan nan nan
nan nan nan nan nan nan nan nan nan nan 263 nan nan nan nan nan nan nan nan 271 274 274 278 282 nan nan nan nan 285 284 283 282 285 287 287 288 289 nan nan nan nan 296 296 297 299 301 304 306 306 306 305 304 302 302 303 303 304 305 304 304 304 305 305 306 306 304 303 301 299 295 292 292 294 293 286 284 289 298 nan nan nan nan nan nan nan nan nan
nan nan nan nan nan nan nan nan nan nan nan nan nan 263 271 275 277 nan nan nan nan nan nan nan nan nan 276 277 279 279 280 283 284 283 285 nan nan nan nan nan nan nan nan nan nan nan 303 304 304 303 301 298 297 297 299 300 301 301 301 301 301 302 304 302 300 299 298 298 297 293 287 284 285 282 282 282 284 288 291 292 nan nan nan nan nan nan nan
nan nan nan nan nan nan nan nan nan nan nan nan nan nan nan 266 nan nan nan nan nan nan nan nan nan 277 277 277 280 281 281 281 282 283 285 nan nan nan nan nan nan nan nan nan nan 299 300 301 300 298 295 294 293 295 296 296 297 298 298 299 299 298 298 299 298 296 294 295 293 287 284 284 286 283 282 nan nan nan nan nan nan nan nan nan nan nan nan
nan nan nan nan nan nan nan nan nan nan nan nan nan nan nan nan 274 nan nan nan nan nan nan nan 274 276 278 280 280 281 281 282 282 283 284 285 nan nan nan nan nan nan nan nan 297 298 298 298 296 295 293 292 nan 294 293 292 293 295 296 295 294 294 294 295 295 293 292 293 291 283 275 278 281 281 nan nan nan nan nan nan nan nan nan nan nan nan nan
nan nan nan nan nan nan nan nan nan nan nan nan nan nan nan nan nan nan 275 275 nan 280 278 277 278 279 279 280 281 281 282 282 283 284 285 nan nan 288 nan nan nan nan nan 294 295 295 294 293 292 292 292 nan nan nan nan nan 293 293 293 290 290 290 292 296 297 295 295 296 291 nan 270 270 nan nan nan nan nan nan nan nan nan nan nan nan nan nan nan
nan nan nan nan nan nan nan nan nan nan nan nan nan nan nan nan nan 276 278 278 278 278 278 279 279 279 279 280 281 280 281 282 284 286 nan nan nan nan nan nan nan 292 293 nan nan nan nan 292 290 290 nan nan nan nan nan nan nan nan 291 290 290 nan nan nan 293 293 291 291 nan nan nan nan nan nan nan nan nan nan nan nan nan nan nan nan nan nan nan
nan nan nan nan nan nan nan nan nan nan nan nan nan nan nan 280 nan 282 281 280 280 279 277 277 278 278 278 278 279 281 283 284 285 285 nan nan nan nan nan 287 nan nan nan nan nan nan nan nan nan nan nan nan nan nan nan nan nan 291 291 292 291 292 nan nan 291 290 290 nan nan nan nan nan nan nan nan nan nan nan nan nan nan nan nan nan nan nan nan
nan nan nan nan nan nan nan nan nan nan nan nan nan nan nan 279 279 280 279 277 275 274 275 275 274 274 275 278 280 283 285 286 286 nan nan nan nan nan nan nan nan nan nan nan nan nan nan nan nan nan nan nan nan nan nan nan nan nan 294 296 294 nan nan nan nan nan nan nan nan nan nan nan nan nan nan nan nan nan nan nan nan nan nan nan nan nan nan
nan nan nan nan nan nan nan nan nan nan nan nan nan nan nan nan 277 276 275 275 275 274 273 274 274 275 276 279 282 284 286 288 287 nan nan nan nan nan nan nan nan nan nan nan nan nan nan nan nan nan nan nan nan nan nan nan nan nan nan nan nan nan nan nan nan nan nan nan nan nan nan nan nan nan nan nan nan nan nan nan nan nan nan nan nan nan nan
nan nan nan nan nan nan nan nan nan nan nan nan nan nan nan 274 275 275 277 278 278 276 275 275 274 274 275 278 279 280 281 286 290 nan nan nan nan nan nan nan nan nan nan nan nan nan nan nan nan nan nan nan nan nan nan nan nan nan nan nan nan nan nan nan nan nan nan nan nan nan nan nan nan nan nan nan nan nan nan nan nan nan nan nan nan nan nan
nan nan nan nan nan nan nan nan nan nan nan nan nan nan nan nan 276 276 277 274 271 nan 271 271 271 272 275 278 278 277 281 287 nan nan nan nan nan nan nan nan nan nan nan nan nan nan nan nan nan nan nan nan nan nan nan nan nan nan nan nan nan nan nan nan nan nan nan nan nan nan nan nan nan nan nan nan nan nan nan nan nan nan nan nan nan nan nan
nan nan nan nan nan nan nan nan nan nan nan 278 nan nan nan 279 279 274 271 nan 274 274 nan nan nan 272 274 276 nan nan nan 289 nan nan nan nan nan nan nan nan nan nan nan nan nan nan nan nan nan nan nan nan nan nan nan nan nan nan nan nan nan nan nan nan nan nan nan nan nan nan nan nan nan nan nan nan nan nan nan nan nan nan nan nan nan nan nan
nan nan nan nan nan nan nan nan nan nan nan nan nan 282 282 279 274 270 266 nan nan nan nan nan nan nan nan nan nan nan nan nan nan nan nan nan nan nan nan nan nan nan nan nan nan nan nan nan nan nan nan nan nan nan nan nan nan nan nan nan nan nan nan nan nan nan nan nan nan nan nan nan nan nan nan nan nan nan nan nan nan nan nan nan nan nan nan
nan nan nan nan nan nan nan nan nan nan nan nan 282 281 279 276 273 270 nan nan nan nan nan nan nan 271 nan nan nan nan nan nan nan nan nan nan nan nan nan nan nan nan nan nan nan nan nan nan nan nan nan nan nan nan nan nan nan nan nan nan nan nan nan nan nan nan nan nan nan nan nan nan nan nan nan nan nan nan nan nan nan nan nan nan nan nan nan
nan nan nan nan nan nan nan nan nan nan nan nan 267 273 nan nan 271 nan nan nan nan nan nan nan nan nan nan nan nan nan nan nan nan nan nan nan nan nan nan nan nan nan nan nan nan nan nan nan nan nan nan nan nan nan nan nan nan nan nan nan nan nan nan nan nan nan nan nan nan nan nan nan nan nan nan nan nan nan nan nan nan nan nan nan nan nan nan
254 nan nan nan nan nan nan nan nan nan nan nan nan nan 261 272 282 nan 272 nan nan nan nan nan nan nan nan nan nan nan nan nan nan nan nan nan nan nan nan nan nan nan nan nan nan nan nan nan nan nan nan nan nan nan nan nan nan nan nan nan nan nan nan nan nan nan nan nan nan nan nan nan nan nan nan nan nan nan nan nan nan nan nan nan nan nan nan
250 254 nan nan nan nan nan nan nan nan nan nan 263 256 239 nan 256 nan nan nan nan nan nan nan nan nan nan nan nan nan nan nan nan nan nan nan nan nan nan nan nan nan nan nan nan nan nan nan nan nan nan nan nan nan nan nan nan nan nan nan nan nan nan nan nan nan nan nan nan nan nan nan nan nan nan nan nan nan nan nan nan nan nan nan nan nan nan
248 255 261 264 265 267 267 267 266 nan nan nan nan nan nan nan nan nan nan nan nan nan nan nan nan nan nan nan nan nan nan nan nan nan nan nan nan nan nan nan nan nan nan nan nan nan nan nan nan nan nan nan nan nan nan nan nan nan nan nan nan nan nan nan nan nan nan nan nan nan nan nan nan nan nan nan nan nan nan nan nan nan nan nan nan nan nan
252 256 257 256 255 255 257 nan 261 262 262 nan nan nan nan nan nan nan nan nan nan nan nan nan nan nan nan nan nan nan nan nan nan nan nan nan nan nan nan nan nan nan nan nan nan nan nan nan nan nan nan nan nan nan nan nan nan nan nan nan nan nan nan nan nan nan nan nan nan nan nan nan nan nan nan nan nan nan nan nan nan nan nan nan nan nan nan
251 250 253 nan nan 253 nan 251 nan nan nan nan nan nan nan nan nan nan nan nan nan nan nan nan nan nan nan nan nan nan nan nan nan nan nan nan nan nan nan nan nan nan nan nan nan nan nan nan nan nan nan nan nan nan nan nan nan nan nan nan nan nan nan nan nan nan nan nan nan nan nan nan nan nan nan nan nan nan nan nan nan nan nan nan nan nan nan
241 245 248 250 nan nan nan nan nan nan nan nan nan nan nan nan nan nan nan nan nan nan nan nan nan nan nan nan nan nan nan nan nan nan nan nan nan nan nan nan nan nan nan nan nan nan nan nan nan nan nan nan nan nan nan nan nan nan nan nan nan nan nan nan nan nan nan nan nan nan nan nan nan nan nan nan nan nan nan nan nan nan nan nan nan nan nan
nan nan 248 246 nan nan nan nan nan nan nan nan nan nan nan nan nan nan nan nan nan nan nan nan nan nan nan nan nan nan nan nan nan nan nan nan nan nan nan nan nan nan nan nan nan nan nan nan nan nan nan nan nan nan nan nan nan nan nan nan nan nan nan nan nan nan nan nan nan nan nan nan nan nan nan nan nan nan nan nan nan nan nan nan nan nan nan
nan nan nan nan nan nan nan nan nan nan 260 260 nan nan nan nan nan nan nan nan nan nan nan nan nan nan nan nan nan nan nan nan nan nan nan nan nan nan nan nan nan nan nan nan nan nan nan nan nan nan nan nan nan nan nan nan nan nan nan nan nan nan nan nan nan nan nan nan nan nan nan nan nan nan nan nan nan nan nan nan nan nan nan nan nan nan nan
nan nan nan nan nan nan nan 258 260 261 262 nan nan nan nan nan nan nan nan nan nan nan nan nan nan nan nan nan nan nan nan nan nan nan nan nan nan nan nan nan nan nan nan nan nan nan nan nan nan nan nan nan nan nan nan nan nan nan nan nan nan nan nan nan nan nan nan nan nan nan nan nan nan nan nan nan nan nan nan nan nan nan nan nan nan nan nan
nan nan nan 240 246 250 252 256 259 262 nan nan nan nan nan nan nan nan nan nan nan nan nan nan nan nan nan nan nan nan nan nan nan nan nan nan nan nan nan nan nan nan nan nan nan nan nan nan nan nan nan nan nan nan nan nan nan nan nan nan nan nan nan nan nan nan nan nan nan nan nan nan nan nan nan nan nan nan nan nan nan nan nan nan nan nan nan
226 230 233 237 242 248 252 253 258 270 276 nan nan nan nan nan nan nan nan nan nan nan nan nan nan nan nan nan nan nan nan nan nan nan nan nan nan nan nan nan nan nan nan nan nan nan nan nan nan nan nan nan nan nan nan nan nan nan nan nan nan nan nan nan nan nan nan nan nan nan nan nan nan nan nan nan nan nan nan nan nan nan nan nan nan nan nan
nan nan nan nan nan nan nan nan nan 269 274 nan nan nan nan nan nan nan nan nan nan nan nan nan nan nan nan nan nan nan nan nan nan nan nan nan nan nan nan nan nan nan nan nan nan nan nan nan nan nan nan nan nan nan nan nan nan nan nan nan nan nan nan nan nan nan nan nan nan nan nan nan nan nan nan nan nan nan nan nan nan nan nan nan nan nan nan